Currently 87°F in Simi Valley, California, USA
87°F
97°F / 79°F
19 mph E
0.00"
Monday, October 23, 2017 10:54 PM PDT

Simi Valley, California Climate Summary
Typical November Day

Normal High:    72.4°F (22.5°C)
Normal Low:    51.5°F (10.8°C)
Average:    61.1°F (16.2°C)

Hour    Temperature    Wind Speed    Humidity
12:00 AM    57°F (14°C)    4 mph    57%
1:00 AM    56°F (13°C)    4 mph    57%
2:00 AM    56°F (13°C)    4 mph    57%
3:00 AM    55°F (13°C)    5 mph    58%
4:00 AM    55°F (13°C)    5 mph    58%
5:00 AM    55°F (13°C)    5 mph    58%
6:00 AM    55°F (13°C)    4 mph    59%
7:00 AM    54°F (12°C)    5 mph    59%
8:00 AM    57°F (14°C)    5 mph    58%
9:00 AM    62°F (17°C)    5 mph    53%
10:00 AM    66°F (19°C)    6 mph    46%
11:00 AM    68°F (20°C)    6 mph    42%
12:00 PM    70°F (21°C)    6 mph    39%
1:00 PM    71°F (22°C)    6 mph    38%
2:00 PM    71°F (22°C)    7 mph    39%
3:00 PM    70°F (21°C)    7 mph    41%
4:00 PM    68°F (20°C)    6 mph    44%
5:00 PM    65°F (19°C)    5 mph    49%
6:00 PM    63°F (17°C)    4 mph    52%
7:00 PM    61°F (16°C)    4 mph    54%
8:00 PM    59°F (15°C)    4 mph    55%
9:00 PM    58°F (14°C)    4 mph    56%
10:00 PM    58°F (14°C)    4 mph    56%
11:00 PM    57°F (14°C)    5 mph    57%
 

The Simi Valley, California weather pages are a service of WeatherCurrents.
Copyright ©Mon Oct 23 22:55:11 PDT 2017  WeatherCurrents. All rights reserved. - Submit questions and comments - Privacy Policy